PLF044 EPLK-EPKK

Flight info

Callsign PLF044
Flight time 0h 35m
Altitude 12000
Route OVBOR N133 NEGUV M66 KUKAM
Aircraft AT76/M-SDFGIRY/S

Departure

Time 2026-05-07 09:33
Airport Łask Air Base (EPLK)

Arrival

Time 2026-05-07 10:08
Airport Kraków John Paul II International Airport (EPKK)
Time Latitude Longitude Altitude Speed Heading
2026-05-07 09:23 51.55474 19.18186 623 ft 0 kts 198°
2026-05-07 09:27 51.55473 19.18185 623 ft 1 kts 197°
2026-05-07 09:28 51.55457 19.18163 630 ft 5 kts 248°
2026-05-07 09:28 51.55464 19.18108 624 ft 5 kts 287°
2026-05-07 09:28 51.55474 19.18069 628 ft 0 kts 318°
2026-05-07 09:28 51.55476 19.18070 628 ft 0 kts 337°
2026-05-07 09:29 51.55477 19.18071 627 ft 0 kts 357°
2026-05-07 09:29 51.55478 19.18073 627 ft 0 kts 22°
2026-05-07 09:29 51.55478 19.18077 628 ft 0 kts 49°
2026-05-07 09:29 51.55478 19.18080 634 ft 0 kts 80°
2026-05-07 09:30 51.55464 19.18118 624 ft 8 kts 122°
2026-05-07 09:30 51.55442 19.18221 629 ft 12 kts 107°
2026-05-07 09:30 51.55416 19.18358 626 ft 14 kts 108°
2026-05-07 09:30 51.55387 19.18515 625 ft 15 kts 106°
2026-05-07 09:31 51.55357 19.18664 624 ft 9 kts 107°
2026-05-07 09:31 51.55317 19.18736 626 ft 10 kts 195°
2026-05-07 09:31 51.55240 19.18685 628 ft 13 kts 207°
2026-05-07 09:31 51.55153 19.18615 623 ft 12 kts 206°
2026-05-07 09:32 51.55069 19.18542 625 ft 15 kts 219°
2026-05-07 09:32 51.55061 19.18417 628 ft 11 kts 307°
2026-05-07 09:32 51.55115 19.18165 624 ft 59 kts 291°
2026-05-07 09:32 51.55319 19.17156 638 ft 127 kts 287°
2026-05-07 09:33 51.55580 19.15739 1191 ft 137 kts 289°
2026-05-07 09:33 51.55843 19.14177 1800 ft 159 kts 276°
2026-05-07 09:33 51.55434 19.12532 2445 ft 172 kts 219°
2026-05-07 09:33 51.54283 19.12042 3199 ft 177 kts 179°
2026-05-07 09:34 51.53072 19.12608 3851 ft 189 kts 148°
2026-05-07 09:34 51.52412 19.14296 4699 ft 180 kts 106°
2026-05-07 09:34 51.52199 19.15630 4992 ft 191 kts 107°
2026-05-07 09:34 51.51673 19.18396 5925 ft 195 kts 111°
2026-05-07 09:35 51.51389 19.19771 6388 ft 196 kts 112°
2026-05-07 09:35 51.50885 19.21808 7049 ft 197 kts 118°
2026-05-07 09:35 51.50253 19.23779 7727 ft 198 kts 124°
2026-05-07 09:35 51.49238 19.26222 8497 ft 199 kts 131°
2026-05-07 09:36 51.48379 19.27964 9078 ft 200 kts 134°
2026-05-07 09:36 51.47777 19.29121 9462 ft 201 kts 135°
2026-05-07 09:36 51.46873 19.30853 10014 ft 203 kts 135°
2026-05-07 09:36 51.45988 19.32583 10518 ft 203 kts 135°
2026-05-07 09:37 51.45093 19.34344 11016 ft 204 kts 135°
2026-05-07 09:37 51.44196 19.36114 11506 ft 206 kts 135°
2026-05-07 09:37 51.43275 19.37929 11801 ft 217 kts 135°
2026-05-07 09:37 51.42277 19.39883 11870 ft 235 kts 134°
2026-05-07 09:38 51.41214 19.41987 11894 ft 249 kts 134°
2026-05-07 09:38 51.40101 19.44183 11903 ft 258 kts 134°
2026-05-07 09:38 51.38954 19.46441 11905 ft 265 kts 134°
2026-05-07 09:38 51.37765 19.48728 11901 ft 263 kts 138°
2026-05-07 09:39 51.36248 19.50222 11903 ft 257 kts 161°
2026-05-07 09:39 51.34594 19.51406 11910 ft 262 kts 158°
2026-05-07 09:39 51.32963 19.52765 11912 ft 267 kts 155°
2026-05-07 09:39 51.31388 19.54383 11925 ft 271 kts 149°
2026-05-07 09:40 51.29907 19.56246 11947 ft 277 kts 143°
2026-05-07 09:40 51.28489 19.58388 11940 ft 285 kts 137°
2026-05-07 09:40 51.27201 19.60836 11894 ft 290 kts 130°
2026-05-07 09:40 51.26086 19.63522 11874 ft 290 kts 126°
2026-05-07 09:41 51.25036 19.66261 11888 ft 289 kts 125°
2026-05-07 09:41 51.23986 19.68984 11883 ft 288 kts 126°
2026-05-07 09:41 51.22907 19.71666 11872 ft 286 kts 127°
2026-05-07 09:41 51.21815 19.74299 11883 ft 284 kts 127°
2026-05-07 09:42 51.20729 19.76934 11891 ft 283 kts 127°
2026-05-07 09:42 51.19652 19.79565 11899 ft 283 kts 127°
2026-05-07 09:42 51.18590 19.82157 11932 ft 282 kts 127°
2026-05-07 09:42 51.17517 19.84762 12013 ft 280 kts 127°
2026-05-07 09:43 51.16441 19.87366 11967 ft 283 kts 127°
2026-05-07 09:43 51.15361 19.89997 11921 ft 284 kts 127°
2026-05-07 09:43 51.14273 19.92625 11936 ft 284 kts 127°
2026-05-07 09:43 51.13193 19.95238 12023 ft 281 kts 127°
2026-05-07 09:44 51.12129 19.97813 12251 ft 275 kts 128°
2026-05-07 09:44 51.11100 20.00260 12819 ft 253 kts 131°
2026-05-07 09:44 51.09752 20.02074 12598 ft 261 kts 155°
2026-05-07 09:44 51.08061 20.03293 12344 ft 270 kts 164°
2026-05-07 09:45 51.06263 20.04204 12345 ft 270 kts 167°
2026-05-07 09:45 51.04463 20.05021 12146 ft 276 kts 168°
2026-05-07 09:45 51.02605 20.05877 12011 ft 278 kts 167°
2026-05-07 09:45 51.00758 20.06799 11951 ft 277 kts 166°
2026-05-07 09:46 50.98932 20.07743 11914 ft 275 kts 166°
2026-05-07 09:46 50.97117 20.08687 11901 ft 274 kts 166°
2026-05-07 09:46 50.95313 20.09631 11896 ft 273 kts 165°
2026-05-07 09:46 50.93515 20.10570 11899 ft 271 kts 166°
2026-05-07 09:47 50.91715 20.11308 11887 ft 262 kts 180°
2026-05-07 09:47 50.89929 20.10947 11894 ft 259 kts 196°
2026-05-07 09:47 50.88203 20.10116 11894 ft 260 kts 201°
2026-05-07 09:47 50.86501 20.09147 11897 ft 260 kts 202°
2026-05-07 09:48 50.84823 20.08187 11890 ft 260 kts 201°
2026-05-07 09:48 50.83108 20.07263 11890 ft 260 kts 200°
2026-05-07 09:48 50.81386 20.06384 11890 ft 259 kts 200°
2026-05-07 09:48 50.79638 20.05705 11891 ft 259 kts 187°
2026-05-07 09:49 50.77836 20.05691 11890 ft 260 kts 182°
2026-05-07 09:49 50.76047 20.05756 11891 ft 261 kts 182°
2026-05-07 09:49 50.74198 20.05786 11553 ft 269 kts 183°
2026-05-07 09:49 50.72323 20.05732 11087 ft 269 kts 184°
2026-05-07 09:50 50.70458 20.05636 10660 ft 268 kts 185°
2026-05-07 09:50 50.68597 20.05523 10272 ft 266 kts 185°
2026-05-07 09:50 50.66745 20.05432 9858 ft 266 kts 185°
2026-05-07 09:50 50.64899 20.05343 9447 ft 265 kts 185°
2026-05-07 09:51 50.63072 20.05254 9240 ft 258 kts 185°
2026-05-07 09:51 50.61295 20.05168 9068 ft 253 kts 185°
2026-05-07 09:51 50.59575 20.05091 8975 ft 246 kts 185°
2026-05-07 09:51 50.57873 20.05010 8918 ft 244 kts 185°
2026-05-07 09:52 50.56175 20.04926 8905 ft 244 kts 185°
2026-05-07 09:52 50.54481 20.04845 8914 ft 244 kts 185°
2026-05-07 09:52 50.52784 20.04765 8906 ft 246 kts 185°
2026-05-07 09:52 50.51047 20.04680 8903 ft 254 kts 185°
2026-05-07 09:53 50.49260 20.04594 8896 ft 258 kts 185°
2026-05-07 09:53 50.47452 20.04507 8900 ft 261 kts 185°
2026-05-07 09:53 50.45617 20.04423 8899 ft 262 kts 185°
2026-05-07 09:53 50.43799 20.04323 8894 ft 263 kts 185°
2026-05-07 09:54 50.41989 20.04216 8806 ft 263 kts 185°
2026-05-07 09:54 50.40207 20.04114 8646 ft 251 kts 185°
2026-05-07 09:54 50.38487 20.04007 8511 ft 244 kts 186°
2026-05-07 09:54 50.36804 20.03913 8368 ft 239 kts 186°
2026-05-07 09:55 50.36244 20.03880 8314 ft 238 kts 186°
2026-05-07 09:55 50.34851 20.03801 8188 ft 235 kts 186°
2026-05-07 09:55 50.33220 20.03704 8071 ft 233 kts 186°
2026-05-07 09:55 50.31607 20.03608 7950 ft 233 kts 186°
2026-05-07 09:56 50.29978 20.03513 7811 ft 235 kts 186°
2026-05-07 09:56 50.28344 20.03547 7666 ft 240 kts 177°
2026-05-07 09:56 50.26696 20.04074 7511 ft 243 kts 171°
2026-05-07 09:56 50.25042 20.04702 7383 ft 245 kts 171°
2026-05-07 09:57 50.23381 20.05336 7246 ft 246 kts 170°
2026-05-07 09:57 50.21848 20.06534 7103 ft 255 kts 141°
2026-05-07 09:57 50.20936 20.08899 6948 ft 264 kts 108°
2026-05-07 09:57 50.20921 20.11765 6794 ft 266 kts 77°
2026-05-07 09:58 50.21461 20.14507 6646 ft 263 kts 72°
2026-05-07 09:58 50.22012 20.17236 6483 ft 264 kts 74°
2026-05-07 09:58 50.22487 20.19995 6349 ft 264 kts 77°
2026-05-07 09:58 50.22901 20.22787 6194 ft 264 kts 78°
2026-05-07 09:59 50.23274 20.25596 6041 ft 264 kts 79°
2026-05-07 09:59 50.23603 20.28401 5887 ft 258 kts 86°
2026-05-07 09:59 50.23237 20.31094 5720 ft 254 kts 121°
2026-05-07 09:59 50.22036 20.32999 5584 ft 244 kts 156°
2026-05-07 10:00 50.20457 20.33598 5458 ft 235 kts 180°
2026-05-07 10:00 50.18823 20.33762 5397 ft 236 kts 181°
2026-05-07 10:00 50.17217 20.33719 5333 ft 227 kts 199°
2026-05-07 10:00 50.15931 20.32396 5199 ft 224 kts 232°
2026-05-07 10:01 50.15130 20.30345 5093 ft 221 kts 244°
2026-05-07 10:01 50.14564 20.28138 5049 ft 217 kts 251°
2026-05-07 10:01 50.14184 20.25875 5009 ft 214 kts 257°
2026-05-07 10:01 50.13893 20.23622 5015 ft 211 kts 258°
2026-05-07 10:02 50.13621 20.21378 5005 ft 212 kts 258°
2026-05-07 10:02 50.13341 20.19077 4824 ft 216 kts 258°
2026-05-07 10:02 50.13066 20.16793 4618 ft 211 kts 258°
2026-05-07 10:02 50.12786 20.14567 4435 ft 208 kts 258°
2026-05-07 10:03 50.12514 20.12383 4260 ft 201 kts 258°
2026-05-07 10:03 50.12259 20.10294 4145 ft 192 kts 258°
2026-05-07 10:03 50.12018 20.08297 4036 ft 184 kts 259°
2026-05-07 10:03 50.11766 20.06356 3850 ft 182 kts 258°
2026-05-07 10:04 50.11516 20.04458 3680 ft 180 kts 258°
2026-05-07 10:04 50.11271 20.02549 3512 ft 180 kts 258°
2026-05-07 10:04 50.11021 20.00631 3320 ft 181 kts 259°
2026-05-07 10:04 50.10764 19.98701 3158 ft 182 kts 258°
2026-05-07 10:05 50.10470 19.96793 3061 ft 181 kts 256°
2026-05-07 10:05 50.10127 19.94870 2811 ft 185 kts 255°
2026-05-07 10:05 50.09799 19.92973 2641 ft 168 kts 256°
2026-05-07 10:05 50.09557 19.91376 2453 ft 135 kts 256°
2026-05-07 10:06 50.09367 19.90076 2294 ft 114 kts 257°
2026-05-07 10:06 50.09198 19.88917 2111 ft 107 kts 258°
2026-05-07 10:06 50.09049 19.87826 1944 ft 101 kts 258°
2026-05-07 10:06 50.08899 19.86756 1739 ft 103 kts 258°
2026-05-07 10:07 50.08763 19.85679 1597 ft 102 kts 259°
2026-05-07 10:07 50.08616 19.84556 1520 ft 109 kts 259°
2026-05-07 10:07 50.08456 19.83393 1350 ft 111 kts 258°
2026-05-07 10:07 50.08293 19.82247 1241 ft 105 kts 259°
2026-05-07 10:08 50.08143 19.81159 1063 ft 99 kts 261°
2026-05-07 10:08 50.08004 19.80139 857 ft 95 kts 259°
2026-05-07 10:08 50.07876 19.79208 797 ft 73 kts 258°
2026-05-07 10:08 50.07831 19.78898 798 ft 15 kts 257°
2026-05-07 10:09 50.07815 19.78782 799 ft 8 kts 258°
2026-05-07 10:09 50.07806 19.78714 798 ft 7 kts 258°
2026-05-07 10:09 50.07797 19.78644 797 ft 6 kts 258°
2026-05-07 10:09 50.07787 19.78579 797 ft 5 kts 255°
2026-05-07 10:10 50.07780 19.78525 798 ft 7 kts 261°
2026-05-07 10:10 50.07765 19.78411 798 ft 14 kts 255°
2026-05-07 10:10 50.07740 19.78219 796 ft 22 kts 258°
2026-05-07 10:10 50.07666 19.78100 796 ft 15 kts 173°
2026-05-07 10:11 50.07570 19.78086 796 ft 13 kts 189°
2026-05-07 10:11 50.07483 19.78102 796 ft 14 kts 134°
2026-05-07 10:11 50.07491 19.78275 796 ft 20 kts 79°
2026-05-07 10:11 50.07520 19.78500 796 ft 23 kts 78°
2026-05-07 10:12 50.07558 19.78752 796 ft 24 kts 75°
2026-05-07 10:12 50.07593 19.79009 796 ft 25 kts 78°
2026-05-07 10:12 50.07597 19.79143 796 ft 3 kts 173°
2026-05-07 10:12 50.07557 19.79148 796 ft 8 kts 179°
2026-05-07 10:13 50.07529 19.79115 796 ft 3 kts 239°
2026-05-07 10:13 50.07522 19.79089 796 ft 2 kts 246°
2026-05-07 10:13 50.07511 19.79052 796 ft 6 kts 245°
2026-05-07 10:13 50.07518 19.79016 796 ft 1 kts 332°
2026-05-07 10:14 50.07535 19.79004 796 ft 0 kts 339°